Location: Bruch
(44.2051°N, 0.4120°E)
Time: 02:28:36
(UTC+00:00)

Daily predictions for brighter satellites

Satellite Brightness Start Highest point End
(mag) Time Altitude Azimuth Time Altitude Azimuth Time Altitude Azimuth
ATLAS 3B R/B 4.2 03:30:35 27° NNE 03:31:14 27° NNE 03:37:08 10° E
Lacrosse 4 Rocket 4.5 03:38:11 13° E 03:38:11 13° E 03:38:51 10° ESE
ALOS 4.4 03:51:05 10° NNE 03:53:16 22° NE 03:53:16 22° NE
NOSS 3-2 (C) 3.9 04:00:07 88° SSW 04:00:07 88° SSW 04:08:41 10° SE
NOSS 3-4 (A) 3.9 04:00:50 57° E 04:00:50 57° E 04:06:13 10° NE
NOSS 3-4 (C) 3.8 04:00:54 57° E 04:00:54 57° E 04:06:21 10° NE
Milstar 3 Cent rocket 4.3 04:00:16 23° S 04:01:43 25° SSE 04:09:53 10° ESE
CENTAUR R/B 3.0 04:01:35 81° NW 04:02:05 87° SW 04:10:59 10° SSE
ATLAS 2AS CENTAUR R/B 3.2 04:15:30 32° SSW 04:19:34 70° ESE 04:27:24 10° NE
Atlas Centaur 2 4.1 04:26:40 20° S 04:27:54 21° S 04:32:10 10° SE
RESURS DK-1 4.5 04:27:07 10° SSE 04:30:36 26° ESE 04:34:05 10° NE
Lacrosse 5 2.0 04:32:03 70° E 04:32:03 70° E 04:36:43 10° NE
ATLAS CENTAUR R/B 3.3 04:32:07 21° NE 04:32:07 21° NE 04:35:05 10° E
ADEOS 3.8 04:30:00 10° NNE 04:35:14 67° ESE 04:40:25 10° S
Cosmos 1328 Rocket 4.2 04:35:40 52° NE 04:36:06 54° E 04:40:25 10° SSE
Cosmos 2263 Rocket 2.8 04:43:11 41° NNW 04:43:11 41° NNW 04:47:14 10° NNE
Gbstr 26 Del rocket 3.8 04:43:34 41° ENE 04:43:34 41° ENE 04:46:28 10° E
SJ 16-02 2.3 04:45:52 37° NNE 04:45:52 37° NNE 04:48:36 10° NNE
USA 238 DEB 4.5 04:45:52 36° SW 04:45:52 36° SW 04:51:37 10° S
USA 238 4.5 04:45:56 36° SW 04:45:56 36° SW 04:51:42 10° S
Cosmos 1898 Rocket 4.3 04:46:34 10° S 04:51:42 51° ESE 04:56:52 10° NNE
Meteor 1-26 Rocket 4.2 04:48:59 16° N 04:53:46 87° E 04:59:22 10° S
FENGYUN 3A 3.5 04:54:44 10° N 05:00:07 66° WNW 05:05:26 10° SSW
Cosmos 1408 Rocket 3.7 04:56:56 10° S 05:01:23 74° E 05:05:50 10° NNE
Cosmos 2181 Rocket 3.8 04:58:45 10° N 05:04:58 77° W 05:11:05 10° S
COSMO-SKYMED 1 2.7 05:00:51 10° SSE 05:05:10 74° ENE 05:07:59 21° N
Cosmos 1709 Rocket 4.1 04:59:51 10° SSW 05:06:03 53° WNW 05:12:17 10° N
Cosmos 1937 Rocket 4.3 05:03:49 10° S 05:08:46 52° ESE 05:13:48 10° NNE
Meteor 2-3 Rocket 3.7 05:07:41 10° SSW 05:13:19 61° WNW 05:19:05 10° N
Lacrosse 4 Rocket 2.0 05:14:32 41° SW 05:14:32 41° SW 05:18:16 10° S
CZ-4C R/B 1.9 05:11:05 22° SW 05:14:19 87° NW 05:20:13 10° NE
Cosmos 1943 3.9 05:17:53 32° WSW 05:17:53 32° WSW 05:22:35 10° SSW
FALCON 9 DEB 3.3 05:18:33 53° NNE 05:18:33 53° NNE 05:21:15 10° NE
Cosmos 1689 Rocket 2.1 05:15:21 10° SSE 05:18:12 70° ENE 05:18:12 70° ENE
CZ-4B R/B 3.2 05:14:12 10° NNE 05:18:43 81° ESE 05:23:06 10° S
SAR-Lupe-4 3.4 05:18:28 10° S 05:22:00 68° WSW 05:22:38 54° NW
Aureole 2 Rocket 4.2 05:20:42 10° SSE 05:22:49 24° ESE 05:24:57 10° NE
ATLAS 3B R/B 2.7 05:17:51 21° NW 05:22:49 90° E 05:30:04 10° SE
Cosmos 1862 3.9 05:22:11 10° S 05:26:09 58° E 05:30:09 10° NNE
Genesis I 3.0 05:24:54 24° SW 05:27:07 84° WNW 05:30:59 10° NE
deb Chang Zheng 4 3.8 05:28:18 10° N 05:32:28 45° WNW 05:36:36 10° SW
ALOS 3.2 05:28:30 10° N 05:31:45 28° NW 05:31:45 28° NW
Cosmos 990 Rocket 4.0 05:29:11 10° SSW 05:34:21 61° WNW 05:39:35 10° NNE
Cosmos 2074 Rocket 3.9 05:29:46 10° SSW 05:35:57 77° W 05:42:12 10° N
Cosmos 923 Rocket 4.5 05:34:01 26° NW 05:36:16 39° WSW 05:41:10 10° S
SAR-Lupe-1 4.4 05:35:38 10° S 05:39:02 43° W 05:40:08 32° NW
ASTRO F (AKARI) 4.4 05:37:05 10° NNE 05:40:12 72° ESE 05:43:20 10° S
BREEZE M DEB (TANK) 3.6 05:31:20 10° SW 05:40:55 57° SSE 05:44:00 10° ENE
Cosmos 405 Rocket 2.7 05:38:16 10° S 05:41:57 79° E 05:45:42 10° NNE
Meteor 1-31 Rocket 4.3 05:38:53 10° N 05:40:29 20° NNW 05:40:29 20° NNW
EO 1 Delta rocket 3.8 05:41:16 10° S 05:46:24 82° W 05:51:03 10° N
Cosmos 1812 2.6 05:43:53 10° N 05:47:45 89° W 05:51:36 10° S
USA 306 4.5 05:47:01 17° NNW 05:49:16 24° NNE 05:52:50 10° ENE
Cosmos 2228 Rocket 3.0 05:45:51 10° N 05:50:18 87° W 05:54:41 10° S
Cosmos 1515 Rocket 4.0 05:46:48 11° NNW 05:50:46 41° W 05:54:56 10° SSW
NOSS 3-4 (A) 4.2 05:48:19 21° W 05:51:23 31° NW 05:57:04 10° NNE
NOSS 3-4 (C) 4.2 05:48:24 20° W 05:51:30 32° NW 05:57:12 10° NNE
PSLV R/B 4.2 05:47:55 10° S 05:51:54 45° W 05:55:47 10° NNW
CENTAUR R/B 4.3 05:48:50 19° WNW 05:52:07 23° WSW 05:58:36 10° SSW
SL-4 R/B 3.2 05:50:37 19° NW 05:52:19 26° N 05:55:30 10° ENE
Cosmos 1151 Rocket 4.4 05:53:56 18° W 05:53:56 18° W 05:56:19 10° SW
SKYMED 2 4.2 05:49:25 10° SSW 05:53:22 33° W 05:56:36 14° NW
Cosmos 2184 Rocket 4.0 05:47:18 10° SSW 05:53:32 60° WNW 05:59:50 10° N
Cosmos 1782 3.7 05:52:14 22° WNW 05:53:38 27° W 05:57:03 10° SSW
USA-17 4.4 05:50:30 10° SW 05:54:13 55° NW 05:57:19 10° NNE
ERS-2 4.2 05:53:04 10° SW 05:53:52 13° WSW 05:53:52 13° WSW
FALCON 9 DEB 3.9 05:56:58 24° WNW 05:58:02 31° NNW 06:00:57 10° NE
USA 234 3.8 05:53:07 10° NE 05:59:37 63° SE 06:06:04 10° SW
Cosmos 1844 Rocket 2.7 05:54:26 10° SW 06:00:00 57° WNW 06:05:37 10° NNE
Cosmos 1680 Rocket 4.4 06:00:25 14° NW 06:04:06 30° W 06:08:39 10° SSW
EXPRESS MD2 4.3 06:03:36 17° NW 06:06:35 61° NNE 06:14:10 10° ESE
Cosmos 1707 Rocket 4.4 06:03:03 10° N 06:07:18 53° ENE 06:11:31 10° SSE
COSMOS 2455 3.0 06:02:04 10° SSW 06:08:06 82° ESE 06:14:10 10° NNE
RESURS DK-1 3.1 06:04:49 10° WSW 06:08:32 30° NW 06:12:15 10° N
BREEZE-M (TANK) 4.3 06:01:09 10° SW 06:09:33 42° SSE 06:12:25 10° E
ATLAS CENTAUR R/B 1.7 06:08:19 16° NW 06:11:06 42° WSW 06:14:51 10° S
ATLAS 2AS CENTAUR R/B 3.6 06:03:52 10° WSW 06:11:10 38° NW 06:18:19 10° NNE
BREEZE-M DEB 3.7 06:02:56 14° WNW 06:11:21 67° SW 06:14:28 10° SE
NOAA 6 4.0 06:07:35 10° NNE 06:12:44 87° WNW 06:17:50 10° SSW
Cosmos 1500 Rocket 4.0 06:09:18 10° SW 06:13:17 36° WNW 06:17:18 10° N
Cosmos 1844 3.7 06:08:29 10° SW 06:13:55 55° WNW 06:19:24 10° NNE
Lacrosse 5 2.8 06:11:18 14° W 06:15:02 31° NNW 06:19:32 10° NE
H-2A R/B 3.2 06:11:35 10° N 06:15:16 40° WNW 06:18:53 10° SW
Atlas Centaur 2 4.1 06:12:00 10° SW 06:16:05 19° S 06:19:38 10° SSE
Cosmos 372 Rocket 3.9 06:12:20 10° SSW 06:17:25 78° WNW 06:22:33 10° NNE
Cosmos 1437 Rocket 2.6 06:14:07 10° NNW 06:17:53 65° W 06:21:37 10° S
CZ-4B DEB 4.2 06:12:25 10° NNE 06:17:54 78° WNW 06:23:21 10° SSW
Okean O Rocket 2.1 06:17:00 10° NNE 06:21:26 66° ESE 06:25:51 10° S
SJ 16-02 3.2 06:22:57 11° WNW 06:23:27 11° NW 06:24:42 10° NW
USA 81 4.3 06:18:25 10° S 06:23:40 78° E 06:28:56 10° N
PAYLOAD B 4.2 06:18:48 10° NNE 06:24:21 83° WNW 06:29:50 10° SSW
SMAP 3.2 06:20:28 10° NNE 06:25:09 83° ESE 06:29:49 10° SSW
Cosmos 2263 Rocket 4.0 06:25:04 10° WNW 06:26:57 12° NW 06:28:50 10° NNW
Gbstr 26 Del rocket 3.9 06:26:06 10° WNW 06:29:21 30° SW 06:32:56 10° SSE
ATLAS 5 CENTAUR R/B 2.2 06:26:37 10° SSW 06:30:32 56° ESE 06:34:55 10° NE
FALCON 9 DEB 4.4 06:28:58 10° WNW 06:31:33 23° NNW 06:34:13 10° NE
FALCON 9 DEB 4.4 06:29:05 10° WNW 06:31:38 22° NNW 06:34:17 10° NE
Sich 1 3.1 06:29:32 10° SSW 06:33:54 58° W 06:38:18 10° N
CZ-2C R/B 2.8 06:29:40 10° SSE 06:35:10 90° ESE 06:40:36 10° NNW
Nadezhda 3 Rocket 4.4 06:29:39 10° NNW 06:35:34 44° W 06:41:24 10° SSW
Cosmos 2366 rocket 4.5 06:32:07 10° S 06:38:24 69° E 06:44:39 10° NNE
AQUARIUS 4.1 06:34:23 10° N 06:38:53 80° WNW 06:43:22 10° SSW
H-2A R/B 2.6 06:35:39 10° N 06:39:17 41° WNW 06:42:53 10° SW
Envisat 3.3 06:34:36 10° N 06:39:27 46° WNW 06:44:17 10° SW
